User: anonymous   Login
Location: Davayat
(45.9471°N, 3.1105°E)
Time: 03:11:49
(UTC+00:00)
Language:

Cosmos 1812 - Orbit

View from above orbital plane
View from above orbital plane
View from above satellite
View from above satellite

Ground track
Ground track

The orbit data is extracted from the following two-line orbital elements,

1 17295U 87003A   21059.51401490  .00000485  00000-0  23727-4 0  9995
2 17295  82.5115 253.1525 0004659 115.0006 245.1711 15.15858747863490
Epoch (UTC): 28 February 2021 12:20:10
Eccentricity: 0.0004659
inclination: 82.5115°
perigee height: 515 km
apogee height: 521 km
right ascension of ascending node: 253.1525°
argument of perigee: 115.0006°
revolutions per day: 15.15858747
mean anomaly at epoch: 245.1711°
orbit number at epoch: 86349

The dashed part of the orbit path shows where the satellite is in the earth's shadow,  

DLR